sat.trackr.live / text

‹ back to catalog

STARLINK-32123

NORAD 60284 · 2024-132G

PAYLOAD ACTIVE UNKNOWN

§ Identity

Operator
Country
US
Launch date
2024-07-28
Launch site
AFETR
Launch vehicle
Mass (kg)
RCS (m²)

Purposes: comms

External: N2YO · Heavens-Above · Gunter

§ Orbital elements

Epoch: 2026-05-25T00:15:52.846848Z

Period
94.11 min
Inclination
53.1609°
Eccentricity
0.0001301
Mean motion
15.30180857 rev/d
Perigee alt
474.4 km
Apogee alt
476.2 km
Semi-major
6,853.4 km
B*
3.2829e-5
RAAN
45.2913°
Arg perigee
80.8599°
Mean anomaly
279.2549°
Rev number
10,342

§ Raw data

STARLINK-321231 60284U 24132G   26145.01102832  .00000613  00000+0  32829-4 0  99942 60284  53.1609  45.2913 0001301  80.8599 279.2549 15.30180857103420

JSON: /api/v1/satellites/60284 · /tle

For live sub-satellite position, see the globe view (requires WebGL).

§ Visibility from observer

Set your observer location to see the next 7 days of passes ≥ 10°. The values pass through the URL so the page stays shareable.

No JS? Fill the form by hand. The geolocation button needs JavaScript.